INTELSAT 33E DEB, 62001

Orbit data source: Space-Track

INTELSAT 33E DEB, 62001 is space debris in GEO originally from a launch on Wed, 24 Aug 2016 UTC launched from the French Guiana (FRGUI). Debris objects in space refer to the collection of defunct objects orbiting the Earth. Examples of debris include non-operational satellites, rocket bodies, and fragments generated from explosions, collisions, or faulty payload assembly.

Not visible in the next 10 days
Identifier
62001, 2016-053T
Orbit
GEO
Country
Flag of USUS / ITSO
Related business
Manufacturer
Boeing/ES
Mission
Spacecraft
Bus & Motor
Unknown
Mass
Unknown
Launch date (UTC)
2016-08-24 (10 years ago)
Launch vehicle
Unknown
Launch site
French Guiana (FRGUI)
Object type
Payload
Rocket body
Debris
Shape & HBR
Unknown shape, 1.1 m
Radar Cross Section
RCS unknown

Expand to show TLE details & history
Last TLE update: 4 days ago

TLE from 4 days ago
0 INTELSAT 33E DEB
1 62001U 16053T   26168.33084131  .00000144  00000-0  00000+0 0  9998
2 62001   1.4317  66.5304 0065023 354.4201   4.6183  1.00238658  6085
Epoch: 2026-06-17T07:56Z
TLE epoch observation values (Epoch: 2026-06-17T07:56:24.689Z)
Latitude
0.00002°
Longitude
40.94429°
Altitude
35,521.155 km
Speed
3.094 km/s
True Right ascension
04h 22m 32s
True Declination
0° 00' 00"
Sunlit
Object was in daylight at epoch
Visualization orbit readout
Latitude
Unknown
Longitude
Unknown
Altitude
Unknown
Speed
Unknown
Apparent Right ascension
Unknown
Apparent Declination
Unknown
Sunlit
N/A
Visualization observer readout
Local Sidereal Time
10:17:09
Azimuth
Unknown
Elevation
Unknown
Doppler factor
Unknown
Orbital elements
Apogee altitude
36,071.189 km
Perigee altitude
35,522.718 km
Semi-major axis
42,175.09 km
Eccentricity
0.0065
Inclination
1.4317°
RAAN
66.5304°
Arg. of periapsis
354.4201°
True anomaly
4.67878°
Mean anomaly
4.6183°
Eccentric anomaly
4.64849°
Mean motion
0.25059 °/min
Orbital period
1,436.62 mins
BSTAR
0
Loading maneuver chart data...
Computing Atmospheric mass density...
Loading historical data...
Loading historical data...
Loading historical data...
Loading historical data...
Loading historical data...
Loading historical data...
Loading historical data...

Documentation

Showing up to 5 results
|